sat.trackr.live / text

‹ back to catalog

STARLINK-3966

NORAD 52552 · 2022-051V

PAYLOAD ACTIVE UNKNOWN

§ Identity

Operator
Country
US
Launch date
2022-05-13
Launch site
AFWTR
Launch vehicle
Mass (kg)
RCS (m²)

Purposes: comms

External: N2YO · Heavens-Above · Gunter

§ Orbital elements

Epoch: 2026-09-20T04:27:40.616064Z

Period
94.01 min
Inclination
53.1607°
Eccentricity
0.0000935
Mean motion
15.31708672 rev/d
Perigee alt
470.1 km
Apogee alt
471.4 km
Semi-major
6,848.9 km
B*
6.4089e-5
RAAN
323.2530°
Arg perigee
59.2507°
Mean anomaly
300.8586°
Rev number
24,098

§ Raw data

STARLINK-39661 52552U 22051V   26263.18588676  .00001625  00000+0  64089-4 0  99912 52552  53.1607 323.2530 0000935  59.2507 300.8586 15.31708672240989

JSON: /api/v1/satellites/52552 · /tle

For live sub-satellite position, see the globe view (requires WebGL).

§ Visibility from observer

Set your observer location to see the next 7 days of passes ≥ 10°. The values pass through the URL so the page stays shareable.

No JS? Fill the form by hand. The geolocation button needs JavaScript.